Flag for Germany Weather past 2 weeks in Neubrandenburg, Mecklenburg-Western Pomerania, Germany

Now
40 °F

Partly sunny.


Feels Like: 34 °F
Forecast: 35 / 44 °F
Wind: 8 mph from West

Location: Greifswald

Current Time: Dec 20, 2014 at 12:55:15 PM

Latest Report: Dec 20, 2014 at 12:00 PM


Visibility: 34 mi

Pressure: 29.62 "Hg

Humidity: 85%

Dew point: 35 °F

Location of NeubrandenburgLocation

Historic Weather in Neubrandenburg — Graph

°F

Neubrandenburg temperature yesterday

Maximum temperature yesterday: 53 °F (at 1:00 AM)
Minimum temperature yesterday: 41 °F (at 11:00 PM)
Average temperature yesterday: 49 °F

Past Weeks' High & Low Weather Summary

 TemperatureHumidityPressure
High53 °F (Dec 19, 1:00 AM)100% (Dec 6, 8:00 PM)30.32 "Hg (Dec 6, 8:00 PM)
Low29 °F (Dec 7, 5:00 AM)75% (Dec 15, 11:00 AM)29.21 "Hg (Dec 12, 5:00 PM)
Average39 °F89%29.82 "Hg
* Reported Dec 5 12:00 Noon — Dec 20 12:00 Noon, Neubrandenburg, Weather by CustomWeather, © 2014

Note: Actual official high and low records may vary slightly from our data, if they occured in-between our weather recording intervals... More about our weather records

Advertising

Neubrandenburg weather history for previous 24 hours

 ConditionsComfort  
Time TempWeatherWind HumidityBarometerVisibility
12:00 PM
Dec 20
40 °FPartly sunny.8 mph85%29.62 "Hg34 mi
11:00 AM39 °FOvercast.9 mph91%29.64 "Hg19 mi
9:00 AM43 °FOvercast.7 mph78%29.65 "Hg19 mi
8:00 AM42 °FOvercast.7 mph81%29.68 "Hg19 mi
7:00 AM42 °FOvercast.8 mph81%29.70 "Hg22 mi
6:00 AM41 °FPassing clouds.7 mph84%29.71 "Hg25 mi
5:00 AM39 °FLight rain. Overcast.8 mph89%29.72 "Hg25 mi
3:00 AM40 °FOvercast.7 mph81%29.72 "Hg25 mi
2:00 AM40 °FPassing clouds.6 mph85%29.72 "Hg25 mi
1:00 AM40 °FPassing clouds.7 mph81%29.72 "Hg25 mi
12:00 AM41 °FClear.8 mph80%29.71 "Hg22 mi
11:00 PM
Dec 19
41 °FPassing clouds.6 mph82%29.71 "Hg25 mi
9:00 PM42 °FSprinkles. Overcast.7 mph85%29.69 "Hg3 mi
8:00 PM43 °FPassing clouds.7 mph80%29.67 "Hg17 mi
7:00 PM43 °FPassing clouds.7 mph80%29.65 "Hg19 mi
6:00 PM45 °FPassing clouds.7 mph78%29.63 "Hg19 mi
5:00 PM47 °FPassing clouds.9 mph81%29.61 "Hg28 mi
3:00 PM47 °FPartly sunny.6 mph87%29.57 "Hg43 mi
2:00 PM48 °FOvercast.5 mph90%29.55 "Hg25 mi
1:00 PM48 °FRain. Low clouds.6 mph94%29.55 "Hg8 mi
12:00 PM48 °FRain. Low clouds.6 mph96%29.54 "Hg3 mi
Weather by CustomWeather, © 2014

See weather overviewHow to use our weather pages